Weather History for Scarborough, Trinidad And Tobago

Change the Weather History Date:

Friday, August 23, 2013

  Actual Average Record
Temperature  
Mean Temperature 90 °F -  
Max Temperature 102 °F 86 °F 102 °F (2013)
Min Temperature 77 °F 76 °F 71 °F (2012)
Cooling Degree Days 24    
Growing Degree Days 40 (Base 50)    
Moisture  
Dew Point 73 °F    
Average Humidity 71    
Maximum Humidity 79    
Minimum Humidity 42    
Precipitation  
Precipitation 0.00 in - - ()
Sea Level Pressure  
Sea Level Pressure 29.87 in    
Wind  
Wind Speed 4 mph ()    
Max Wind Speed 14 mph    
Max Gust Speed -    
Visibility 6.2 miles    
Events      
Averages and records for this station are not official NWS values.
T = Trace of Precipitation, MM = Missing Value Source: Averaged Metar Reports

Daily Weather History Graph

Daily Weather History Graph

Search for Another Location

Airport:

Trip Planner

Search our weather history database for the weather conditions in past years. The results will help you decide how hot, cold, wet, or windy it might be!

Date:

Astronomy

Aug. 23, 2013 Rise Set
Actual Time 5:53 AM AST 6:18 PM AST
Civil Twilight 5:31 AM AST 6:39 PM AST
Nautical Twilight 5:06 AM AST 7:04 PM AST
Astronomical Twilight 4:41 AM AST 7:30 PM AST
Moon 8:20 PM AST (8/23) 8:02 AM AST (8/23)
Length of Visible Light 13h 07m
Length of Day
12h 24m
Waning Gibbous, 91% of the Moon is Illuminated
Aug 23
Waning Gibbous
Aug 28
Last Quarter
Sep 5
New
Sep 12
First Quarter
Sep 19
Full

Hourly Weather History & Observations

Time (AST) Temp. Heat Index Dew Point Humidity Pressure Visibility Wind Dir Wind Speed Gust Speed Precip Events Conditions
12:00 AM 78.8 °F - 71.6 °F 78% 29.89 in 6.2 mi Calm Calm - N/A   Partly Cloudy
1:00 AM 78.8 °F - 71.6 °F 78% 29.89 in 6.2 mi Calm Calm - N/A   Partly Cloudy
2:00 AM 78.8 °F - 69.8 °F 74% 29.86 in 6.2 mi Calm Calm - N/A   Partly Cloudy
3:00 AM 78.8 °F - 69.8 °F 74% 29.86 in 6.2 mi Calm Calm - N/A   Partly Cloudy
4:00 AM 77.0 °F - 69.8 °F 78% 29.86 in 6.2 mi Calm Calm - N/A   Partly Cloudy
6:00 AM 78.8 °F - 71.6 °F 78% 29.86 in 6.2 mi Calm Calm - N/A   Partly Cloudy
7:00 AM 80.6 °F 84.6 °F 71.6 °F 74% 29.86 in 6.2 mi Calm Calm - N/A   Partly Cloudy
8:00 AM 84.2 °F 92.3 °F 75.2 °F 74% 29.89 in 6.2 mi ENE 9.2 mph - N/A   Scattered Clouds
9:00 AM 86.0 °F 91.8 °F 71.6 °F 62% 29.92 in 6.2 mi ENE 9.2 mph - N/A   Scattered Clouds
10:00 AM 87.8 °F 95.6 °F 73.4 °F 62% 29.89 in 6.2 mi East 13.8 mph - N/A   Scattered Clouds
11:00 AM 89.6 °F 98.2 °F 73.4 °F 59% 29.92 in 6.2 mi East 13.8 mph - N/A   Scattered Clouds
12:00 PM 102.2 °F 116.3 °F 75.2 °F 42% 29.89 in 6.2 mi ENE 9.2 mph - N/A   Scattered Clouds
1:00 PM 86.0 °F 95.1 °F 75.2 °F 70% 29.86 in 6.2 mi ENE 8.1 mph - N/A   Scattered Clouds
2:00 PM 87.8 °F 102.5 °F 78.8 °F 75% 29.83 in 6.2 mi East 11.5 mph - N/A   Scattered Clouds
3:00 PM 84.2 °F 92.3 °F 75.2 °F 74% 29.83 in 6.2 mi ENE 9.2 mph - N/A   Scattered Clouds
4:00 PM 84.2 °F 90.9 °F 73.4 °F 70% 29.83 in 6.2 mi East 9.2 mph - N/A   Scattered Clouds
5:00 PM 87.8 °F 93.8 °F 71.6 °F 58% 29.83 in 6.2 mi East 11.5 mph - N/A   Scattered Clouds
6:00 PM 84.2 °F 89.6 °F 71.6 °F 66% 29.83 in 6.2 mi East 11.5 mph - N/A   Scattered Clouds
7:00 PM 80.6 °F 85.4 °F 73.4 °F 79% 29.86 in 6.2 mi ENE 5.8 mph - N/A   Scattered Clouds
8:00 PM 80.6 °F 84.6 °F 71.6 °F 74% 29.89 in 6.2 mi East 5.8 mph - N/A   Scattered Clouds
9:00 PM 80.6 °F 84.6 °F 71.6 °F 74% 29.89 in 6.2 mi ENE 5.8 mph - N/A   Partly Cloudy
10:00 PM 78.8 °F - 71.6 °F 78% 29.92 in 6.2 mi Calm Calm - N/A   Partly Cloudy
11:00 PM 78.8 °F - 71.6 °F 78% 29.92 in 6.2 mi Calm Calm - N/A   Scattered Clouds